Regional Weather Roundup
Issued by NWS Nashville, TN

Home | Current Version | Previous Version | Text Only | Print | Product List | Glossary On
Versions: 1 2 3 4 5 6 7 8 9 10 11 12 13 14 15 16 17 18 19 20 21 22 23 24 25 26 27 28 29 30 31 32 33 34 35 36 37 38 39 40 41 42 43 44 45 46 47 48 49 50
000
ASUS44 KOHX 062310
RWROHX
MIDDLE TENNESSEE HOURLY WEATHER ROUNDUP
NATIONAL WEATHER SERVICE NASHVILLE TN
500 PM CST SAT FEB 06 2016

NOTE: "FAIR" INDICATES FEW OR NO CLOUDS BELOW 12,000 FEET WITH
NO SIGNIFICANT WEATHER AND/OR OBSTRUCTIONS TO VISIBILITY.

* THESE REPORTS ARE NOT UNDER NWS QUALITY CONTROL AND MAY NOT
  REPORT WEATHER SUCH AS PRECIPITATION AND FOG.


TNZ005>011-023>034-057-059-062>066-078-080-070000
...NORTHERN MIDDLE TENNESSEE...

CITY           SKY/WX    TMP DP  RH WIND       PRES   REMARKS
CLARKSVILLE    CLEAR     50  20  30 SW3       30.27F
CROSSVILLE     CLOUDY    42  17  36 S3        30.27F
DICKSON        CLEAR     48  18  29 CALM      30.27F
LEBANON        PTCLDY    47  21  35 CALM      30.28F
LIVINGSTON     PTCLDY    45  21  38 CALM      30.28S
NASHVILLE      MOCLDY    50  16  25 CALM      30.29F
PORTLAND       PTCLDY   N/A N/A N/A S5        30.27F
ROCKWOOD       MOCLDY    40  20  45 CALM      30.27F
SMYRNA         CLOUDY    48  23  37 N3        30.30F
SPARTA         CLEAR     43  28  56 CALM      30.27F
$$
TNZ056-058-060-061-075>077-079-093>097-070000
...SOUTHERN MIDDLE TENNESSEE...

CITY           SKY/WX    TMP DP  RH WIND       PRES   REMARKS
COLUMBIA       CLEAR     48  25  40 CALM      30.27S
FAYETTEVILLE   CLEAR     46  19  34 N3        30.28F
LEWISBURG      PTCLDY    48  22  36 CALM      30.29S
MCMINNVILLE    CLEAR     45  19  36 CALM      30.28F
SHELBYVILLE    CLEAR     48  21  34 CALM      30.30S
TULLAHOMA      CLEAR     45  14  29 CALM      30.29S
WINCHESTER     PTCLDY    45  21  39 CALM      30.29S
$$


...KEY TO REMARKS...
VSB - VISIBILITY IN MILES
WCI - WIND CHILL INDEX
HX  - HEAT INDEX




USA.gov is the U.S. government's official web portal to all federal, state and local government web resources and services.